カタログに戻る

STARLINK-32853

運用中通信VLEO
NORAD 62818·PAYLOAD·🇺🇸 United States

打ち上げ Jan 24, 2025 から Vandenberg Space Force Base

Loading…

次のパス (今後24時間)

TLE

最新Source: CelesTrak SupGP

元期: Sep 15, 2026, 03:29 UTC

1 62818C 25018N   26258.14562500  .00043222  00000+0  12772-2 0  2588
2 62818  53.1559 146.5502 0001277  78.7790  73.7823 15.34363587    19

AllMySatでSTARLINK-32853をリアルタイム追跡

Download on the App Store